Regional Weather Roundup
Issued by NWS

Home | Current Version | Previous Version | Graphics & Text | Print | Product List | Glossary On
Versions: 1 2 3 4 5 6 7 8 9 10 11 12 13 14 15 16 17 18 19 20 21 22 23 24 25 26 27 28 29 30 31 32
000
ASUS43 KDMX 220507
RWRIA

WEATHER ROUNDUP FOR IOWA
NATIONAL WEATHER SERVICE DES MOINES IA
1200 AM CDT WED OCT 22 2014

NOTE: "FAIR" INDICATES FEW OR NO CLOUDS BELOW 12,000 FEET WITH NO
SIGNIFICANT WEATHER AND/OR OBSTRUCTIONS TO VISIBILITY.

* - THESE STATIONS ARE NOT NWS STATIONS...THUS NOT UNDER NWS
QUALITY CONTROL.  THEY ALSO DO NOT REPORT WEATHER SUCH
AS PRECIPITATION OR FOG.

IAZ001>003-012>014-020>022-031>034-043>046-220600-
   NORTHWEST IOWA

CITY           SKY/WX    TMP DP  RH WIND       PRES   REMARKS
CARROLL *      PTCLDY    46  43  87 SE7       30.14R
CHEROKEE *     CLEAR     52  43  71 SE14      30.09F
DENISON *      MOCLDY    52  45  76 SE13G18   30.08F
LE MARS *      CLEAR     54  45  71 SE13G20   30.06S
ORANGE CITY *  CLEAR     55  45  67 SE8G16    30.07S
SHELDON *      CLEAR     52  43  71 SE15      30.07S
SIOUX CITY     CLEAR     51  43  74 SE8       30.06S
SPENCER        CLEAR     49  41  74 SE13      30.11S
STORM LAKE *   CLEAR     48  43  81 SE16      30.11F
$$

IAZ055>058-069>071-079>083-090>094-220600-
   SOUTHWEST IOWA

CITY           SKY/WX    TMP DP  RH WIND       PRES   REMARKS
ATLANTIC *     CLOUDY    54  45  71 SE8G15    30.12S
AUDUBON *      CLEAR     46  39  76 CALM      30.14S
CLARINDA *     CLOUDY    55  45  67 SE6       30.14R
COUNCIL BLFS * MOCLDY    54  46  76 SE12      30.07S
CRESTON *      CLEAR     48  45  87 SE8       30.15S
HARLAN  *      PTCLDY    54  46  76 SE8       30.14S
LAMONI         CLEAR     51  42  71 SE6       30.16R
RED OAK *      CLEAR     55  46  71 SE9       30.11S
SHENANDOAH *   CLEAR     55  46  71 SE13G18   30.10F
$$

IAZ047>049-059>061-072>074-084-220600-
   CENTRAL IOWA

CITY           SKY/WX    TMP DP  RH WIND       PRES   REMARKS
AMES           CLEAR     45  38  76 SE5       30.18R
ANKENY *       CLEAR     48  39  71 SE7       30.18S
CHARITON *     CLEAR     46  41  81 SE8       30.17F
DES MOINES     CLEAR     52  40  63 SE10      30.17S
GRINNELL*      CLEAR     43  37  81 E8        30.20F
KNOXVILLE *    CLEAR     46  39  76 SE7       30.17S
MARSHALLTOWN   CLEAR     41  36  82 E8        30.19S
PELLA *        CLEAR     44  38  81 SE6       30.20S
PERRY *          N/A     45  41  87 E7        30.16S
$$

IAZ004>006-015-016-023>025-035-036-220600-
   NORTH CENTRAL IOWA

CITY           SKY/WX    TMP DP  RH WIND       PRES   REMARKS
ALGONA *       CLEAR     46  41  81 SE12      30.15S
CLARION *      CLEAR     46  39  76 SE12G17   30.17R
ESTHERVILLE    CLEAR     47  40  76 SE17      30.12S
FORT DODGE *   CLEAR     48  37  66 SE12      30.16S
MASON CITY     CLEAR     43  37  79 SE12      30.20S
FOREST CITY *  CLEAR     45  37  76 SE12      30.17S
IOWA FALLS *     N/A     43  37  81 SE7       30.20R
$$

IAZ007>011-017>019-026>030-037>042-050>054-066-220600-
   NORTHEAST IOWA

CITY           SKY/WX    TMP DP  RH WIND       PRES   REMARKS
CEDAR RAPIDS   CLEAR     42  38  85 E9        30.22F
CHARLES CITY * CLEAR     43  37  81 SE8       30.23R
CLINTON *      CLEAR     36  32  87 E7        30.29S WCI  30
DECORAH *      CLEAR     41  37  87 SE9       30.23S
DUBUQUE        CLEAR     38  35  89 E5        30.26S WCI  34
MONTICELLO *   CLEAR     41  37  87 E5        30.25S
OELWEIN *      CLEAR     41  37  87 SE10      30.24S
WATERLOO       CLEAR     43  37  79 SE10      30.22S
$$

IAZ064-065-067-068-078-220600-
   EAST CENTRAL IOWA

CITY           SKY/WX    TMP DP  RH WIND       PRES   REMARKS
DAVENPORT      CLEAR     38  34  85 E7        30.26S WCI  33
IOWA CITY      CLEAR     44  38  79 E7        30.25S
MT. PLEASANT * CLEAR     39  36  87 E5        30.23S
MUSCATINE *    CLEAR     45  37  76 E6        30.25S
QUAD CITIES    CLEAR     38  35  89 E6        30.26S WCI  33
$$

IAZ062-063-075>077-085>089-095>099-220600-
   SOUTHEAST IOWA

CITY           SKY/WX    TMP DP  RH WIND       PRES   REMARKS
BURLINGTON     CLEAR     45  39  79 E8        30.23R
FAIRFIELD *    CLEAR     41  36  81 E7        30.22S
FORT MADISON * CLEAR     48  41  76 E7        30.23S
KEOKUK *       CLEAR     46  39  76 E10       30.22R
OSKALOOSA *      N/A     45  37  76 E8        30.21S
CENTERVILLE *  CLEAR     45  39  81 E6        30.20S
WASHINGTON *   CLEAR     43  39  87 E8        30.23S
$$

ABBREVIATIONS USED IN REMARKS
   TC - TEMPERATURES IN CELSIUS
  WCI - WIND CHILL INDEX
   HX - HEAT INDEX
  VSB - VISIBILITY
$$




USA.gov is the U.S. government's official web portal to all federal, state and local government web resources and services.